Abingdon, VA

9:17 AM EDT on September 16, 2019 (GMT -0400)
Virginia Highlands

Weather History for KVJI - June, 2019

Change the Weather History Date:

Wednesday, June 5, 2019

  Actual Average (KTRI) Record (KTRI)
Temperature  
Mean Temperature 66 °F -  
Max Temperature 71 °F 80 °F 93 °F (1943)
Min Temperature 62 °F 56 °F 41 °F (1988)
Cooling Degree Days 2    
Growing Degree Days 16 (Base 50)    
Moisture  
Dew Point 64 °F    
Average Humidity 90    
Maximum Humidity 100    
Minimum Humidity 73    
Precipitation  
Precipitation 0.09 in - - ()
Sea Level Pressure  
Sea Level Pressure 30.04 in    
Wind  
Wind Speed 2 mph (WSW)    
Max Wind Speed 13 mph    
Max Gust Speed -    
Visibility 9 miles    
Events Rain    
Averages and records for this station are not official NWS values.
T = Trace of Precipitation, MM = Missing Value Source: NWS Daily Summary

Daily Weather History Graph

Daily Weather History Graph

Search for Another Location

Airport or City:

Astronomy

Jun. 05, 2019 Rise Set
Actual Time 6:09 AM EDT 8:43 PM EDT
Civil Twilight 5:39 AM EDT 9:14 PM EDT
Nautical Twilight 5:02 AM EDT 9:51 PM EDT
Astronomical Twilight 4:20 AM EDT 10:33 PM EDT
Moon 8:13 AM EDT (6/5) 11:09 PM EDT (6/5)
Length of Visible Light 15h 34m
Length of Day
14h 33m
Waxing Crescent, 6% of the Moon is Illuminated
Jun 5
Waxing Crescent
Jun 10
First Quarter
Jun 17
Full
Jun 25
Last Quarter
Jul 2
New

Hourly Weather History & Observations

Time (EDT) Temp. Dew Point Humidity Pressure Visibility Wind Dir Wind Speed Gust Speed Precip Events Conditions
12:18 AM 66.2 °F 60.8 °F 83% 30.09 in 10.0 mi Calm Calm - N/A   Mostly Cloudy
12:38 AM 66.2 °F 60.8 °F 83% 30.09 in 10.0 mi Calm Calm - N/A   Overcast
1:17 AM 66.2 °F 60.8 °F 83% 30.09 in 10.0 mi Calm Calm - N/A   Overcast
1:38 AM 66.2 °F 60.8 °F 83% 30.09 in 10.0 mi Calm Calm - N/A   Overcast
1:57 AM 66.2 °F 60.8 °F 83% 30.09 in 10.0 mi Calm Calm - N/A   Overcast
2:18 AM 66.2 °F 60.8 °F 83% 30.09 in 10.0 mi Calm Calm - N/A   Overcast
2:37 AM 66.2 °F 62.6 °F 88% 30.09 in 10.0 mi Calm Calm - N/A   Overcast
2:57 AM 66.2 °F 62.6 °F 88% 30.08 in 10.0 mi Calm Calm - N/A   Overcast
3:18 AM 66.2 °F 62.6 °F 88% 30.08 in 10.0 mi Calm Calm - N/A Rain Light Rain
3:38 AM 64.4 °F 62.6 °F 94% 30.08 in 10.0 mi Calm Calm - N/A Rain Light Rain
3:59 AM 64.4 °F 62.6 °F 94% 30.07 in 10.0 mi Calm Calm - N/A   Scattered Clouds
4:17 AM 64.4 °F 62.6 °F 94% 30.07 in 10.0 mi Calm Calm - N/A   Scattered Clouds
4:38 AM 64.4 °F 62.6 °F 94% 30.07 in 10.0 mi Calm Calm - N/A   Clear
4:58 AM 64.4 °F 62.6 °F 94% 30.06 in 10.0 mi Calm Calm - N/A   Clear
5:17 AM 64.4 °F 62.6 °F 94% 30.06 in 10.0 mi Calm Calm - N/A   Scattered Clouds
5:38 AM 64.4 °F 62.6 °F 94% 30.06 in 10.0 mi Calm Calm - N/A   Scattered Clouds
6:17 AM 62.6 °F 62.6 °F 100% 30.06 in 7.0 mi Calm Calm - N/A   Mostly Cloudy
6:58 AM 62.6 °F 62.6 °F 100% 30.06 in 7.0 mi Calm Calm - N/A   Overcast
7:38 AM 64.4 °F 62.6 °F 94% 30.06 in 10.0 mi Calm Calm - N/A   Scattered Clouds
7:58 AM 64.4 °F 62.6 °F 94% 30.06 in 7.0 mi Calm Calm - N/A   Mostly Cloudy
8:18 AM 64.4 °F 64.4 °F 100% 30.06 in 10.0 mi Calm Calm - N/A   Mostly Cloudy
8:37 AM 66.2 °F 62.6 °F 88% 30.06 in 10.0 mi Calm Calm - N/A   Scattered Clouds
8:58 AM 69.8 °F 62.6 °F 78% 30.06 in 10.0 mi Calm Calm - N/A   Clear
9:59 AM 71.6 °F 62.6 °F 73% 30.05 in 10.0 mi Calm Calm - N/A   Scattered Clouds
10:58 AM 66.2 °F 64.4 °F 94% 30.07 in 7.0 mi NW 3.5 mph - N/A Rain Rain
11:17 AM 66.2 °F 64.4 °F 94% 30.07 in 7.0 mi Calm Calm - 0.01 in Rain Light Rain
11:38 AM 66.2 °F 64.4 °F 94% 30.08 in 5.0 mi Calm Calm - 0.03 in Rain Light Rain
11:58 AM 68.0 °F 64.4 °F 88% 30.08 in 7.0 mi WSW 6.9 mph - N/A   Overcast
12:59 PM 66.2 °F 64.4 °F 94% 30.10 in 2.5 mi West 6.9 mph - 0.01 in Rain Rain
1:18 PM 66.2 °F 66.2 °F 100% 30.09 in 4.0 mi SSW 5.8 mph - 0.03 in Rain Light Rain
1:37 PM 66.2 °F 66.2 °F 100% 30.07 in 4.0 mi SW 9.2 mph - 0.04 in Rain Light Rain
1:58 PM 66.2 °F 66.2 °F 100% 30.06 in 5.0 mi WSW 8.1 mph - N/A Rain Rain
2:37 PM 66.2 °F 66.2 °F 100% 30.05 in 5.0 mi WSW 10.4 mph - 0.01 in   Overcast
2:58 PM 68.0 °F 66.2 °F 94% 30.04 in 7.0 mi WSW 9.2 mph - N/A   Overcast
3:17 PM 68.0 °F 66.2 °F 94% 30.04 in 7.0 mi WSW 12.7 mph - N/A   Overcast
3:37 PM 68.0 °F 66.2 °F 94% 30.02 in 10.0 mi WSW 10.4 mph - N/A   Overcast
3:58 PM 69.8 °F 64.4 °F 83% 30.02 in 10.0 mi WSW 12.7 mph - N/A   Overcast
4:37 PM 69.8 °F 64.4 °F 83% 30.01 in 10.0 mi West 10.4 mph - N/A   Scattered Clouds
5:18 PM 69.8 °F 64.4 °F 83% 29.99 in 10.0 mi WSW 9.2 mph - N/A   Mostly Cloudy
5:58 PM 71.6 °F 62.6 °F 73% 29.98 in 10.0 mi West 9.2 mph - N/A   Mostly Cloudy
6:17 PM 71.6 °F 62.6 °F 73% 29.97 in 10.0 mi West 9.2 mph - N/A   Clear
6:37 PM 71.6 °F 64.4 °F 78% 29.97 in 10.0 mi WNW 8.1 mph - N/A   Mostly Cloudy
6:57 PM 69.8 °F 64.4 °F 83% 29.96 in 10.0 mi West 4.6 mph - N/A   Overcast
7:17 PM 69.8 °F 64.4 °F 83% 29.97 in 10.0 mi West 3.5 mph - N/A   Overcast
7:57 PM 69.8 °F 64.4 °F 83% 29.96 in 10.0 mi Calm Calm - N/A   Overcast
8:19 PM 69.8 °F 64.4 °F 83% 29.95 in 10.0 mi Calm Calm - N/A   Overcast
8:38 PM 68.0 °F 64.4 °F 88% 29.95 in 10.0 mi Calm Calm - N/A   Scattered Clouds
9:18 PM 68.0 °F 64.4 °F 88% 29.95 in 10.0 mi Calm Calm - N/A   Mostly Cloudy
9:38 PM 66.2 °F 64.4 °F 94% 29.96 in 10.0 mi Calm Calm - N/A   Mostly Cloudy
11:18 PM 64.4 °F 64.4 °F 100% 29.99 in 10.0 mi Calm Calm - N/A   Clear
11:37 PM 66.2 °F 66.2 °F 100% 29.99 in 10.0 mi West 3.5 mph - N/A   Scattered Clouds
11:58 PM 64.4 °F 64.4 °F 100% 29.99 in 10.0 mi Calm Calm - N/A   Scattered Clouds